C/2025 B1 ( PanSTARRS )

Japanese version
Home page
Updated on January 26, 2025

---------------------------------------------------------------------

* Profile

Discovery Date January 20, 2025
Magnitude 20.7 mag
Discoverer Pan-STARRS 2 telescope (Haleakala)

* Orbital Elements

Epoch 2025 July 24.0 TT = JDT 2460880.5                                         
T 2025 June 26.47001 TT                                 Veres                   
q   3.5326989            (2000.0)            P               Q                  
z  +0.0001955      Peri.   23.44191     -0.50239965     -0.60000234             
 +/-0.0000001      Node   102.84070     +0.65723516     -0.73286549             
e   0.9993093      Incl.   39.68284     +0.56181539     +0.32078865             
From 35 observations 2024 Dec. 24-2025 Jan. 23, mean residual 0".4.             

* Magnitudes Graph

        m1 = 12.0 + 5 log d + 10.0 log r

---------------------------------------------------------------------

The orbital elements are published on M.P.E.C. 2025-B77.
The magnitudes graphs are made with Comet for Windows.

---------------------------------------------------------------------

Copyright(C) Seiichi Yoshida (comet@aerith.net). All rights reserved.